CZ-6A DEB

Satellite information

Favourite Embed

Satellite Type and Status

DEBRISIN ORBIT

Key statistics

Satellite CZ-6A DEB at a glance.

Uptime

1128

Days in orbit

Revolutions

≈ 14.3

Per day

Orbit

SSO

Sun Synchronous Orbit

Inclination

98.8

Latest

Satellite identification and parameters

Extended collection of information and parameters for CZ-6A DEB.

Object identification

Identified? True

Debris? True

Object name: CZ-6A DEB

International designator: 2022-151SG

Object number (NORAD): 54943

Object ID (CCSDS): 54943

Country: PEOPLES REPUBLIC OF CHINA (PRC)

Current information (Y/N): Y

RCS size: SMALL

Orbital parameters

Period: 100.978 minutes

Inclination: 98.8052 deg

SMA: 7183.081 km

Apoapsis: 820.067 km

Periapsis: 789.824 km

RAAN: 1.496 deg

Eccentricy: 0.00210516

Argument of periapsis: 96.783 deg

Mean anomaly: 263.5746 deg

Mean motion: 14.26056211 rev/day

Mean motion (dot): 0.00006904 rev/day2

B* drag term: 0.002899765 1/REarth

Two-line elements (TLE)

Creation date: Dec. 11, 2025, 7:14 p.m.

Reference frame: TEME

Reference center: EARTH

Epoch: Dec. 11, 2025, 11:36 a.m. UTC

TLE line 0: 0 CZ-6A DEB

TLE line 1: 1 54943U 22151SG 25345.48393311 .00006904 00000-0 28998-2 0 9994

TLE line 2: 2 54943 98.8052 1.4960 0021052 96.7830 263.5746 14.26056211159086

Live tracking on map

Real-time ground track for satellite CZ-6A DEB.

In-orbit conjunctions

A list of the most updated potential collisions computed for object CZ-6A DEB.

Target Orbit TCA Probability of collision Miss distance Type
CZ-6A DEB LEO 2025-02-03 06:48:47 0.0001576683 611.0 (m) DEBRIS
COSMOS 1275 DEB LEO 2024-12-16 00:09:03 0.0001492914 163.0 (m) DEBRIS

Associated space launch

Chinese satellite reported for atmospheric/ocean/environmental/spatial parameter research purposes, details TBD.

CZ-6A DEB was lifted into orbit during the mission ‘Long March 6A | Yunhai 3’, on board a Long March 6A space rocket.

The launch took place on Nov. 11, 2022, 10:52 p.m. from Launch Complex 9A.

For more information about the launch, click the button.

Launch to space Long March 6A | Yunhai 3
Long March 6A | Yunhai 3

Agency: N/A

Status: Launch Successful

Launch date: Nov. 11, 2022, 10:52 p.m. UTC

Rocket: Long March 6A

Launch pad: Launch Complex 9A

Location: Taiyuan Satellite Launch Center, People's Republic of China

...

Latest news about this satellite

There are no fresh news available about this satellite. Check back as we update our databases every day.


Newsletter sign-up

Weekly statistics, charts and insights to help you stay on top of the space industry.